If you wish to contribute or participate in the discussions about articles you are invited to join SKYbrary as a registered user

 Actions

Adana Şakirpaşa Airport

From SKYbrary Wiki

LTAF
Airport
ICAO: LTAF – IATA: ADA
Summary
Name Adana Şakirpaşa Airport
Region Europe
Territory Turkey TR.gif
Location Adana, Adana
Serving Adana
Elevation 19.812 m
65 ft
65 ft19.812 m
Coordinates 36° 58' 57.00" N, 35° 16' 59.00" E
Runways
Designator Length Width Surface ROPS
5/23 2750 m9,022.31 ft
45 m147.638 ft
ASP yes/yes


METAR
Observation LTAF 161350Z 28009KT 9999 -SHRA BKN030 13/11 Q1009 TEMPO TL1600 -TSRA
Station Adana / Sakirpasa
Date/Time 16 April 2019 13:50:00
Wind direction 280°
Wind speed 09 kts
Lowest cloud amount broken clouds
Temperature 13°C
Dew point 11°C
Humidity 87%
QNH 1009 hPa
Weather condition light showers rain

GND
Tag(s) Foreign Object Debris

Adana Şakirpaşa Airport

ICAO: LTAF IATA: ADA

Description

Military/Civil airport serving southern Turkey.

Climatology

Dry-summer subtropical ”Mediterranean" climate (Köppen climate classification Csa) - characterized by hot, dry summers and mild winters. During the summer, subtropical high pressure cells dominate, making rainfall unlikely except for the occasional thunderstorm. In the winter, periodic storms bring rain.

Maps

Terrain

Loading map...

Airport Layout

Loading map...


Accidents & Serious Incidents at or in vicinity of LTAF

None on SKYbrary